Home   Weather   Walsall   Past weeks

Flag for United Kingdom Past Weather in Walsall, England, United Kingdom — Yesterday and Last 2 Weeks

Now
45 °F

Fog.


Feels Like: 42 °F
Forecast: N/A
Wind: 5 mph from Northeast

Location: Birmingham / Airport

Current Time: Jan 19, 2017 at 3:21:20 pm

Latest Report: Jan 19, 2017 at 2:50 pm


Visibility: 3 mi

Pressure: 30.60 "Hg

Humidity: 100%

Dew Point: 45 °F

Location of WalsallLocation

Past Weather in Walsall — Graph

°F

Walsall Temperature Yesterday

Maximum temperature yesterday: 41 °F (at 12:20 am)
Minimum temperature yesterday: 39 °F (at 12:50 am)
Average temperature yesterday: 40 °F

High & Low Weather Summary for the Past Weeks

 TemperatureHumidityPressure
High52 °F (Jan 11, 5:20 am)100% (Jan 5, 1:20 am)30.66 "Hg (Jan 5, 1:20 am)
Low27 °F (Jan 5, 3:20 am)53% (Jan 11, 2:20 pm)29.42 "Hg (Jan 12, 5:50 pm)
Average41 °F93%30.22 "Hg
* Reported Jan 4 1:20 pm — Jan 19 1:50 pm, Walsall, Weather by CustomWeather, © 2017

Note: Actual official high and low records may vary slightly from our data, if they occured in-between our weather recording intervals... More about our weather records

Advertising

Walsall Weather History for the Previous 24 Hours

Scroll right to see more
 ConditionsComfort  
Time TempWeatherWind HumidityBarometerVisibility
1:50 pm
Thu, Jan 19
45 °FFog.3 mph100%30.60 "Hg3 mi
1:20 pm45 °FFog.3 mph100%30.63 "Hg3 mi
12:50 pm45 °FFog.3 mph100%30.63 "Hg3 mi
12:20 pm43 °FFog.5 mph100%30.63 "Hg3 mi
11:50 am43 °FFog.5 mph100%30.63 "Hg2 mi
11:20 am43 °FFog.3 mph100%30.63 "Hg2 mi
10:50 am43 °FFog.3 mph100%30.66 "Hg1 mi
10:20 am43 °FFog.2 mph100%30.66 "Hg1 mi
9:50 am43 °FFog.3 mph100%30.66 "Hg1 mi
9:20 am43 °FFog.2 mph100%30.66 "Hg1 mi
8:50 am43 °FFog.2 mph100%30.66 "Hg1 mi
8:20 am41 °FFog.2 mph100%30.63 "Hg1 mi
7:50 am41 °FFog.No wind100%30.63 "Hg2 mi
7:20 am41 °FFog.No wind100%30.63 "Hg2 mi
6:50 am41 °FFog.2 mph100%30.63 "Hg2 mi
6:20 am41 °FFog.No wind100%30.63 "Hg1 mi
5:50 am41 °FFog.No wind100%30.63 "Hg1 mi
5:20 am41 °FFog.2 mph100%30.63 "Hg1 mi
4:50 am41 °FFog.2 mph100%30.63 "Hg1 mi
4:20 am41 °FFog.2 mph100%30.63 "Hg2 mi
3:50 am41 °FFog.No wind100%30.63 "Hg2 mi
3:20 am41 °FFog.2 mph100%30.63 "Hg3 mi
2:50 am41 °FFog.2 mph100%30.63 "Hg3 mi
2:20 am41 °FFog.3 mph100%30.63 "Hg1 mi
1:50 am41 °FFog.2 mph100%30.63 "Hg1 mi
1:20 am41 °FFog.2 mph100%30.63 "Hg1 mi
12:50 am41 °FFog.No wind100%30.63 "Hg1 mi
12:20 am41 °FFog.No wind100%30.63 "Hg1 mi
11:50 pm
Wed, Jan 18
41 °FFog.No wind100%30.63 "Hg1 mi
11:20 pm41 °FFog.No wind100%30.66 "Hg1 mi
10:50 pm41 °FFog.2 mph100%30.66 "Hg1 mi
10:20 pm41 °FFog.2 mph100%30.66 "Hg1 mi
9:50 pm41 °FFog.3 mph100%30.66 "Hg1 mi
9:20 pm41 °FFog.2 mph100%30.66 "Hg1 mi
8:50 pm41 °FFog.2 mph100%30.66 "Hg1 mi
8:20 pm41 °FFog.No wind100%30.66 "Hg1 mi
7:50 pm41 °FFog.No wind100%30.66 "Hg1 mi
7:20 pm41 °FFog.3 mph100%30.66 "Hg1 mi
6:50 pm41 °FFog.3 mph100%30.66 "Hg1 mi
6:20 pm41 °FFog.2 mph100%30.66 "Hg1 mi
5:50 pm41 °FFog.2 mph100%30.66 "Hg1 mi
5:20 pm41 °FFog.3 mph100%30.66 "Hg1 mi
4:50 pm41 °FFog.3 mph100%30.63 "Hg1 mi
4:20 pm41 °FFog.3 mph100%30.63 "Hg1 mi
3:50 pm41 °FFog.3 mph100%30.63 "Hg1 mi
3:20 pm41 °FFog.3 mph100%30.63 "Hg1 mi
Weather by CustomWeather, © 2017

See weather overviewHow to use our weather pages